Location: East Horndon
(51.5667°N, 0.3500°E)
Time: 23:37:33
(UTC+00:00)

SL-16 R/B - Pass Details

Date: 08 November 2025
Orbit: 841 x 844 km, 71.0° (Epoch: 04 December)

Event Time Altitude Azimuth Distance (km) Brightness Sun altitude
Exits shadow 05:48:02 12° 312° (NW) 2,349 4.0 -12.1°
Maximum altitude 05:50:18 14° 337° (NNW) 2,175 4.0 -11.8°
Drops below altitude 10° 05:53:20 10° 10° (N) 2,478 4.6 -11.3°
Sets 05:57:04 0° 34° (NE) 3,415 5.6 -10.7°
